Total_Precipitation_Accumulation
1.50 1.41 2.17 3.21 3.62 2.79 2.41 2.17 1.75 1.59 1.31 1.07 0.87 0.86 1.12 1.46 1.62 1.86 1.91 1.98 1.29 1.15 1.38 1.86 2.33 2.15 1.95 1.83 1.72 1.56 1.36 1.05 0.88 0.84 0.82 0.74 0.65 0.64 0.64 0.63 0.56 0.57 0.56 0.56 0.64 0.75 0.73 0.78 0.85
1.14 1.73 2.78 3.70 3.20 2.40 2.43 2.16 1.86 1.56 1.15 0.84 0.69 0.68 0.72 0.68 0.61 1.03 2.02 2.23 1.34 1.09 1.25 1.47 2.11 2.04 1.93 1.84 1.63 1.62 1.38 1.03 0.90 0.85 0.80 0.69 0.64 0.67 0.74 0.74 0.63 0.61 0.59 0.57 0.58 0.69 0.69 0.72 0.80
1.59 2.47 3.37 3.47 2.52 2.27 2.40 2.16 1.82 1.20 0.86 0.76 0.67 0.58 0.64 0.79 0.84 1.36 2.05 1.68 1.24 1.09 1.25 1.78 2.16 1.88 1.79 1.64 1.53 1.58 1.43 1.18 1.01 0.88 0.78 0.73 0.69 0.70 0.77 0.72 0.69 0.68 0.65 0.66 0.68 0.72 0.73 0.70 0.69
2.05 2.98 3.31 2.93 2.30 1.96 1.92 1.89 1.58 1.16 0.90 0.62 0.57 0.62 0.63 0.92 1.03 1.37 1.53 1.20 1.06 1.09 1.24 1.66 1.88 1.71 1.64 1.56 1.45 1.41 1.41 1.38 1.15 0.96 0.88 0.86 0.81 0.82 0.84 0.83 0.75 0.75 0.76 0.78 0.76 0.74 0.77 0.76 0.73
2.49 3.05 3.00 2.74 2.35 2.00 1.68 1.55 1.44 1.24 1.01 0.72 0.70 0.77 0.98 1.45 1.39 1.34 1.30 1.07 0.92 0.94 1.06 1.36 1.66 1.55 1.48 1.43 1.38 1.30 1.34 1.41 1.27 1.01 0.99 1.00 0.93 0.93 0.94 0.94 0.84 0.84 0.81 0.82 0.86 0.79 0.81 0.80 0.80
2.92 2.84 2.84 2.74 2.56 2.21 1.82 1.41 1.27 1.17 0.90 0.74 0.79 0.87 1.32 1.73 1.68 1.62 1.36 1.30 1.10 0.97 0.95 1.10 1.41 1.46 1.37 1.37 1.43 1.28 1.23 1.30 1.23 1.09 1.03 0.95 0.95 0.99 1.01 0.94 0.89 0.88 0.88 0.89 0.92 0.90 0.86 0.81 0.83
2.75 2.63 2.62 2.24 2.32 2.56 1.97 1.28 1.30 1.23 1.09 0.90 0.70 0.86 1.30 1.58 1.46 1.42 1.32 1.33 1.36 1.31 1.17 1.03 1.06 1.19 1.24 1.31 1.41 1.31 1.22 1.20 1.12 1.15 1.10 1.06 1.03 0.97 0.92 0.91 0.92 0.91 0.91 0.94 0.95 0.89 0.87 0.87 0.89
2.27 2.29 2.23 2.17 2.32 2.47 1.77 1.11 1.01 1.14 1.08 0.75 0.76 0.94 1.18 1.18 1.07 1.12 1.26 1.45 1.43 1.37 1.24 1.06 0.98 1.00 1.07 1.03 1.17 1.35 1.36 1.25 1.13 1.11 1.12 1.11 1.05 0.94 0.89 0.81 0.85 0.91 0.94 1.01 1.02 0.93 0.93 0.95 0.92
1.90 2.27 2.49 2.55 2.45 2.12 1.42 1.12 0.92 0.85 0.83 0.76 0.74 0.78 0.85 0.74 0.82 0.99 1.03 1.07 1.16 1.14 1.08 1.00 0.97 0.98 1.06 1.10 1.09 1.31 1.39 1.28 1.07 0.97 1.03 1.03 0.86 0.85 0.87 0.80 0.98 1.00 1.06 1.11 1.09 1.06 1.04 0.98 0.95
1.92 2.22 2.30 1.91 1.53 1.42 1.22 1.09 0.99 1.02 1.06 0.88 0.79 0.79 0.80 0.76 0.78 0.86 0.90 0.91 0.91 0.88 0.82 0.78 0.78 0.83 0.94 1.02 1.37 1.57 1.37 1.26 0.98 0.98 0.89 0.93 0.99 1.06 0.88 0.87 1.12 1.15 1.21 1.18 1.17 1.19 1.08 0.89 0.75
1.61 1.91 1.64 1.44 1.18 0.97 0.99 1.00 0.83 0.94 1.09 0.91 0.84 0.80 0.83 0.84 0.83 0.86 0.85 0.75 0.73 0.67 0.60 0.56 0.52 0.53 0.61 0.81 1.16 1.44 1.56 1.53 1.45 1.21 1.00 1.00 0.88 0.78 0.71 0.74 0.87 0.97 1.06 1.03 1.05 1.06 0.89 0.80 0.77
1.55 1.51 1.33 1.32 0.99 0.94 0.93 0.87 0.82 0.82 0.89 0.81 0.87 0.78 0.75 0.79 0.81 0.80 0.80 0.74 0.67 0.65 0.59 0.51 0.47 0.43 0.45 0.54 0.71 0.91 1.05 1.14 1.17 1.02 0.93 1.02 0.90 0.79 0.79 0.78 0.79 0.80 0.91 1.04 1.07 1.04 0.91 0.80 0.70
1.61 1.57 1.27 1.05 0.94 0.87 0.80 0.77 0.77 0.82 0.76 0.69 0.80 0.85 0.84 0.83 0.82 0.82 0.79 0.79 0.73 0.75 0.74 0.63 0.51 0.47 0.46 0.49 0.57 0.64 0.79 0.88 0.90 0.93 0.88 0.92 0.94 0.91 0.87 0.80 0.80 0.75 0.84 0.98 1.08 1.03 0.92 0.89 0.82
1.43 1.42 1.43 1.25 1.03 0.91 0.90 0.77 0.65 0.78 0.78 0.75 0.83 0.89 0.88 0.92 0.83 0.79 0.79 0.81 0.79 0.79 0.76 0.74 0.62 0.58 0.52 0.49 0.52 0.56 0.66 0.74 0.78 0.77 0.76 0.86 0.95 0.95 0.91 0.87 0.90 0.87 0.91 1.04 1.05 0.94 1.00 1.03 0.94
1.30 1.53 1.49 1.32 1.09 0.98 0.97 1.04 0.75 0.66 0.76 0.81 0.89 0.83 0.81 0.86 0.82 0.78 0.76 0.73 0.76 0.78 0.72 0.69 0.69 0.68 0.65 0.61 0.59 0.58 0.64 0.74 0.76 0.73 0.68 0.70 0.79 0.85 0.88 0.89 0.90 0.95 1.05 1.11 1.14 0.96 1.00 0.99 0.91
1.61 1.89 1.93 1.41 1.21 1.04 1.14 1.27 0.82 0.72 0.75 0.71 0.73 0.69 0.69 0.73 0.72 0.72 0.73 0.67 0.67 0.63 0.59 0.62 0.63 0.66 0.71 0.72 0.72 0.73 0.73 0.80 0.77 0.76 0.69 0.64 0.69 0.78 0.92 0.93 0.91 0.95 1.09 1.20 1.25 1.15 1.12 1.07 1.03
1.76 1.77 1.63 1.36 1.12 1.03 1.01 0.98 0.76 0.75 0.76 0.63 0.62 0.59 0.59 0.58 0.56 0.56 0.61 0.63 0.59 0.54 0.53 0.54 0.56 0.57 0.67 0.74 0.77 0.84 0.86 0.87 0.85 0.84 0.75 0.71 0.77 0.85 1.02 1.13 1.15 1.15 1.18 1.18 1.14 1.20 1.21 1.19 1.20
1.45 1.34 1.22 1.15 0.96 0.89 0.84 0.72 0.62 0.63 0.63 0.55 0.50 0.47 0.49 0.49 0.46 0.45 0.46 0.48 0.48 0.47 0.47 0.50 0.54 0.55 0.60 0.73 0.84 0.98 1.09 1.05 1.07 1.02 0.89 0.91 1.06 1.20 1.34 1.35 1.43 1.49 1.39 1.37 1.32 1.35 1.29 1.23 1.29
0.97 1.03 1.04 0.95 0.74 0.74 0.70 0.57 0.53 0.55 0.57 0.54 0.49 0.41 0.39 0.40 0.38 0.38 0.38 0.40 0.39 0.38 0.41 0.45 0.48 0.56 0.60 0.64 0.77 0.98 1.24 1.35 1.44 1.40 1.22 1.17 1.29 1.53 1.75 1.72 1.78 1.81 1.72 1.70 1.74 1.93 1.88 1.61 1.37
0.94 1.08 1.06 0.95 0.68 0.62 0.60 0.49 0.43 0.45 0.52 0.47 0.44 0.41 0.35 0.34 0.29 0.27 0.27 0.30 0.31 0.31 0.32 0.36 0.42 0.52 0.58 0.62 0.79 0.95 1.09 1.09 1.26 1.41 1.39 1.31 1.30 1.45 1.59 1.85 1.96 1.90 1.96 2.10 2.11 2.46 2.60 2.14 1.70
0.91 0.91 0.90 0.88 0.70 0.57 0.54 0.53 0.40 0.37 0.42 0.39 0.35 0.35 0.32 0.30 0.28 0.27 0.26 0.24 0.26 0.27 0.25 0.27 0.32 0.42 0.55 0.68 0.89 1.10 1.28 1.36 1.42 1.35 1.43 1.45 1.38 1.42 1.53 1.68 1.84 1.86 1.94 2.05 2.20 2.54 3.03 2.79 2.21
0.84 0.59 0.53 0.59 0.73 0.75 0.62 0.74 0.48 0.41 0.45 0.41 0.35 0.30 0.29 0.27 0.27 0.31 0.28 0.30 0.28 0.25 0.21 0.23 0.31 0.44 0.64 0.86 1.08 1.32 1.53 1.56 1.44 1.48 1.51 1.41 1.35 1.31 1.38 1.52 1.66 1.79 1.82 1.96 2.06 2.19 2.70 3.06 2.74
0.55 0.45 0.42 0.49 0.63 0.60 0.46 0.57 0.50 0.41 0.50 0.47 0.40 0.35 0.30 0.26 0.27 0.28 0.26 0.29 0.29 0.27 0.27 0.33 0.52 0.76 1.01 1.23 1.48 1.74 1.73 1.61 1.52 1.51 1.48 1.43 1.45 1.42 1.41 1.55 1.62 1.64 1.70 1.80 2.13 2.40 2.67 2.88 2.85
0.36 0.42 0.47 0.52 0.65 0.65 0.41 0.47 0.52 0.41 0.43 0.47 0.45 0.37 0.31 0.26 0.30 0.37 0.41 0.47 0.52 0.55 0.68 0.87 1.14 1.33 1.43 1.55 1.70 1.81 1.76 1.76 1.70 1.51 1.41 1.41 1.47 1.53 1.56 1.61 1.62 1.59 1.62 1.73 1.95 2.24 2.46 2.78 2.96
0.32 0.53 0.80 0.85 0.86 0.64 0.35 0.51 0.57 0.41 0.33 0.34 0.36 0.31 0.26 0.30 0.39 0.52 0.66 0.77 0.89 1.03 1.16 1.30 1.47 1.62 1.59 1.57 1.62 1.66 1.65 1.62 1.60 1.53 1.43 1.38 1.40 1.43 1.45 1.55 1.67 1.75 1.78 1.89 2.06 2.20 2.12 2.33 2.72
0.31 0.47 0.85 0.98 0.82 0.60 0.47 0.68 0.63 0.46 0.34 0.26 0.20 0.20 0.31 0.44 0.57 0.69 0.76 0.87 1.02 1.17 1.24 1.24 1.35 1.46 1.44 1.42 1.39 1.37 1.44 1.45 1.39 1.31 1.28 1.32 1.40 1.37 1.32 1.36 1.46 1.60 1.77 1.82 1.86 1.88 1.85 1.98 2.23
0.28 0.32 0.39 0.62 0.52 0.52 0.60 0.77 0.66 0.42 0.35 0.29 0.25 0.29 0.44 0.64 0.85 1.00 1.11 1.21 1.25 1.29 1.35 1.27 1.27 1.33 1.34 1.28 1.20 1.18 1.24 1.29 1.30 1.23 1.23 1.22 1.22 1.14 1.06 1.06 1.10 1.19 1.27 1.35 1.50 1.60 1.71 1.75 1.89
0.24 0.33 0.44 0.71 0.82 0.84 0.82 0.84 0.72 0.53 0.46 0.48 0.55 0.66 0.72 0.83 1.10 1.39 1.63 1.79 1.62 1.35 1.27 1.24 1.16 1.17 1.26 1.25 1.17 1.12 1.19 1.19 1.17 1.19 1.16 1.15 1.15 1.05 0.98 0.94 0.90 0.87 0.85 0.90 1.08 1.28 1.41 1.51 1.66
0.25 0.38 0.50 0.67 0.79 1.04 1.24 1.19 0.91 0.91 0.92 0.98 1.08 1.13 1.13 1.23 1.23 1.39 1.58 1.76 1.67 1.36 1.13 1.16 1.18 1.15 1.15 1.14 1.15 1.14 1.10 0.99 0.98 1.02 1.01 1.00 0.99 1.03 1.01 0.93 0.86 0.93 0.94 0.90 0.96 1.03 1.09 1.16 1.31
0.35 0.47 0.63 0.91 0.85 0.87 1.14 1.24 0.99 0.97 0.99 1.08 1.26 1.32 1.31 1.23 1.14 1.13 1.18 1.25 1.28 1.13 0.95 0.92 1.07 1.14 1.10 1.06 1.08 1.07 0.97 0.91 0.87 0.85 0.81 0.71 0.68 0.70 0.79 0.88 0.83 0.81 0.85 0.87 0.93 0.96 1.00 1.02 1.11